User: anonymous   Login
Location: Unspecified
(0.0000°N, 0.0000°E)
Time: 20:43:31
(UTC+00:00)
Language:

CANX 3B (BRITE-ASRA) - Orbit

View from above orbital plane
View from above orbital plane
View from above satellite
View from above satellite

Ground track
Ground track

The orbit data is extracted from the following two-line orbital elements,

1 39091U 13009F   17176.12440643 -.00000003 +00000-0 +14220-4 0  9998
2 39091 098.5498 020.8727 0009379 286.9030 073.1126 14.35031016226621
Epoch (UTC): 25 June 2017 02:59:08
Eccentricity: 0.0009379
inclination: 98.5498°
perigee height: 768 km
apogee height: 781 km
right ascension of ascending node: 20.8727°
argument of perigee: 286.9030°
revolutions per day: 14.35031016
mean anomaly at epoch: 73.1126°
orbit number at epoch: 22662

The dashed part of the orbit path shows where the satellite is in the earth's shadow,  

DLR